| time (UTC) | temp F | wind direction | speed MPH | gust MPH | rain 1hr in | rain 24hr in | rain mn in | humidity % | barometer mb |
| 20260509044339 | 58 | 290 | 8.0 | 0.0 | 0.00 | 0.00 | 0.00 | 47 | 1014.4 |
| 20260509043327 | 59 | 281 | 6.0 | 0.0 | 0.00 | 0.00 | 0.00 | 47 | 1013.9 |
| 20260509042332 | 60 | 298 | 5.0 | 0.0 | 0.00 | 0.00 | 0.00 | 46 | 1013.8 |
| 20260509041356 | 61 | 290 | 5.0 | 0.0 | 0.00 | 0.00 | 0.00 | 45 | 1013.5 |
| 20260509040343 | 62 | 336 | 4.0 | 0.0 | 0.00 | 0.00 | 0.00 | 45 | 1014.4 |
| 20260509035327 | 63 | 306 | 4.0 | 0.0 | 0.00 | 0.00 | 0.00 | 41 | 1013.9 |
| 20260509034332 | 63 | 299 | 6.0 | 0.0 | 0.00 | 0.00 | 0.00 | 40 | 1013.8 |
| 20260509033356 | 62 | 153 | 6.0 | 0.0 | 0.00 | 0.00 | 0.00 | 45 | 1013.3 |
| 20260509032344 | 64 | 216 | 8.0 | 0.0 | 0.00 | 0.00 | 0.00 | 41 | 1013.7 |
| 20260509031327 | 63 | 161 | 10.0 | 0.0 | 0.00 | 0.00 | 0.00 | 42 | 1013.5 |
| 20260509030332 | 63 | 133 | 6.0 | 0.0 | 0.00 | 0.00 | 0.00 | 43 | 1014.5 |
| 20260509025335 | 63 | 130 | 6.0 | 0.0 | 0.00 | 0.00 | 0.00 | 44 | 1012.6 |
| 20260509024340 | 64 | 73 | 9.0 | 0.0 | 0.00 | 0.00 | 0.00 | 41 | 1013.2 |
| 20260509023348 | 65 | 70 | 8.0 | 0.0 | 0.00 | 0.00 | 0.00 | 40 | 1013.1 |
| 20260509022330 | 66 | 222 | 10.0 | 0.0 | 0.00 | 0.00 | 0.00 | 39 | 1012.3 |
| 20260509021335 | 66 | 192 | 11.0 | 0.0 | 0.00 | 0.00 | 0.00 | 37 | 1012.4 |
| 20260509020340 | 66 | 17 | 10.0 | 0.0 | 0.00 | 0.00 | 0.00 | 38 | 1013.2 |
| 20260509015328 | 66 | 11 | 9.0 | 0.0 | 0.00 | 0.00 | 0.00 | 36 | 1012.2 |
| 20260509014333 | 67 | 360 | 15.0 | 0.0 | 0.00 | 0.00 | 0.00 | 36 | 1012.2 |
| 20260509013340 | 67 | 336 | 11.0 | 0.0 | 0.00 | 0.00 | 0.00 | 34 | 1012.2 |
| 20260509012343 | 68 | 314 | 8.0 | 0.0 | 0.00 | 0.00 | 0.00 | 33 | 1012.0 |
| 20260509011330 | 68 | 219 | 14.0 | 0.0 | 0.00 | 0.00 | 0.00 | 32 | 1011.8 |
| 20260509010335 | 68 | 252 | 16.0 | 0.0 | 0.00 | 0.00 | 0.00 | 32 | 1012.5 |
| 20260509005338 | 68 | 264 | 15.0 | 0.0 | 0.00 | 0.00 | 0.00 | 32 | 1011.7 |
| 20260509004342 | 70 | 309 | 14.0 | 0.0 | 0.00 | 0.00 | 0.00 | 30 | 1011.3 |
| 20260509003327 | 71 | 244 | 8.0 | 0.0 | 0.00 | 0.00 | 0.00 | 28 | 1011.8 |
| 20260509002336 | 72 | 275 | 4.0 | 0.0 | 0.00 | 0.00 | 0.00 | 29 | 1011.6 |
| 20260509001343 | 73 | 350 | 3.0 | 0.0 | 0.00 | 0.00 | 0.00 | 28 | 1011.1 |
| 20260509000328 | 73 | 323 | 3.0 | 0.0 | 0.00 | 0.00 | 0.00 | 27 | 1011.2 |
| 20260508235353 | 73 | 334 | 6.0 | 0.0 | 0.00 | 0.00 | 0.00 | 26 | 1011.7 |
| 20260508234344 | 73 | 66 | 6.0 | 0.0 | 0.00 | 0.00 | 0.00 | 26 | 1011.0 |
| 20260508233327 | 73 | 35 | 10.0 | 0.0 | 0.00 | 0.00 | 0.00 | 27 | 1011.7 |
| 20260508232329 | 74 | 23 | 9.0 | 0.0 | 0.00 | 0.00 | 0.00 | 26 | 1011.7 |
| 20260508231353 | 74 | 322 | 12.0 | 0.0 | 0.00 | 0.00 | 0.00 | 24 | 1011.0 |
| 20260508230336 | 74 | 284 | 11.0 | 0.0 | 0.00 | 0.00 | 0.00 | 26 | 1011.8 |
| 20260508225344 | 74 | 227 | 10.0 | 0.0 | 0.00 | 0.00 | 0.00 | 25 | 1011.2 |
| 20260508224328 | 72 | 249 | 5.0 | 0.0 | 0.00 | 0.00 | 0.00 | 27 | 1011.7 |
| 20260508223332 | 72 | 234 | 4.0 | 0.0 | 0.00 | 0.00 | 0.00 | 26 | 1011.8 |
| 20260508222337 | 72 | 259 | 5.0 | 0.0 | 0.00 | 0.00 | 0.00 | 27 | 1011.8 |
| 20260508221345 | 73 | 199 | 4.0 | 0.0 | 0.00 | 0.00 | 0.00 | 27 | 1011.8 |
| 20260508220328 | 72 | 227 | 5.0 | 0.0 | 0.00 | 0.00 | 0.00 | 26 | 1012.1 |
| 20260508215355 | 72 | 249 | 4.0 | 0.0 | 0.00 | 0.00 | 0.00 | 26 | 1011.8 |
| 20260508214339 | 73 | 271 | 7.0 | 0.0 | 0.00 | 0.00 | 0.00 | 27 | 1011.8 |
| 20260508213327 | 72 | 205 | 7.0 | 0.0 | 0.00 | 0.00 | 0.00 | 26 | 1011.9 |
| 20260508212351 | 72 | 334 | 5.0 | 0.0 | 0.00 | 0.00 | 0.00 | 27 | 1012.1 |
| 20260508211335 | 72 | 346 | 5.0 | 0.0 | 0.00 | 0.00 | 0.00 | 26 | 1012.4 |
| 20260508210339 | 72 | 5 | 8.0 | 0.0 | 0.00 | 0.00 | 0.00 | 27 | 1012.5 |
| 20260508205327 | 72 | 277 | 5.0 | 0.0 | 0.00 | 0.00 | 0.00 | 27 | 1012.4 |
| 20260508204331 | 72 | 203 | 6.0 | 0.0 | 0.00 | 0.00 | 0.00 | 26 | 1012.7 |
| 20260508203339 | 72 | 236 | 5.0 | 0.0 | 0.00 | 0.00 | 0.00 | 28 | 1012.7 |
| 20260508202402 | 71 | 309 | 5.0 | 0.0 | 0.00 | 0.00 | 0.00 | 29 | 1012.8 |
| 20260508201325 | 70 | 337 | 7.0 | 0.0 | 0.00 | 0.00 | 0.00 | 30 | 1013.3 |
| 20260508200333 | 70 | 303 | 5.0 | 0.0 | 0.00 | 0.00 | 0.00 | 30 | 1013.4 |
| 20260508195337 | 69 | 225 | 4.0 | 0.0 | 0.00 | 0.00 | 0.00 | 32 | 1013.2 |
| 20260508194340 | 69 | 342 | 5.0 | 0.0 | 0.00 | 0.00 | 0.00 | 31 | 1013.3 |
| 20260508193325 | 70 | 279 | 8.0 | 0.0 | 0.00 | 0.00 | 0.00 | 31 | 1013.9 |
| 20260508192336 | 70 | 205 | 12.0 | 0.0 | 0.00 | 0.00 | 0.00 | 31 | 1014.1 |
| 20260508191339 | 70 | 242 | 7.0 | 0.0 | 0.00 | 0.00 | 0.00 | 33 | 1013.6 |
| 20260508190342 | 68 | 21 | 6.0 | 0.0 | 0.00 | 0.00 | 0.00 | 35 | 1013.8 |
| 20260508185405 | 68 | 279 | 4.0 | 0.0 | 0.00 | 0.00 | 0.00 | 37 | 1013.8 |
| 20260508184326 | 68 | 31 | 6.0 | 0.0 | 0.00 | 0.00 | 0.00 | 36 | 1014.0 |
| 20260508183334 | 68 | 310 | 3.0 | 0.0 | 0.00 | 0.00 | 0.00 | 39 | 1014.2 |
| 20260508182338 | 67 | 273 | 5.0 | 0.0 | 0.00 | 0.00 | 0.00 | 42 | 1014.7 |
| 20260508181343 | 67 | 268 | 3.0 | 0.0 | 0.00 | 0.00 | 0.00 | 41 | 1014.8 |
| 20260508180350 | 67 | 300 | 4.0 | 0.0 | 0.00 | 0.00 | 0.00 | 40 | 1014.9 |
| 20260508175337 | 67 | 291 | 3.0 | 0.0 | 0.00 | 0.00 | 0.00 | 40 | 1015.0 |
| 20260508174340 | 66 | 283 | 3.0 | 0.0 | 0.00 | 0.00 | 0.00 | 44 | 1015.3 |
| 20260508173328 | 64 | 94 | 3.0 | 0.0 | 0.00 | 0.00 | 0.00 | 45 | 1015.7 |
| 20260508172333 | 64 | 91 | 4.0 | 0.0 | 0.00 | 0.00 | 0.00 | 46 | 1015.9 |
| 20260508171341 | 64 | 16 | 3.0 | 0.0 | 0.00 | 0.00 | 0.00 | 46 | 1015.9 |
| 20260508170345 | 63 | 115 | 3.0 | 0.0 | 0.00 | 0.00 | 0.00 | 48 | 1016.1 |
| 20260508165348 | 62 | 152 | 4.0 | 0.0 | 0.00 | 0.00 | 0.00 | 49 | 1015.8 |
| 20260508164351 | 61 | 176 | 3.0 | 0.0 | 0.00 | 0.00 | 0.00 | 52 | 1016.3 |
| 20260508163333 | 60 | 100 | 4.0 | 0.0 | 0.00 | 0.00 | 0.00 | 53 | 1016.4 |
| 20260508162342 | 60 | 126 | 3.0 | 0.0 | 0.00 | 0.00 | 0.00 | 56 | 1016.0 |
| 20260508161346 | 58 | 96 | 3.0 | 0.0 | 0.00 | 0.00 | 0.00 | 57 | 1016.0 |
| 20260508160330 | 57 | 106 | 4.0 | 0.0 | 0.00 | 0.00 | 0.00 | 59 | 1016.3 |
| 20260508155334 | 56 | 76 | 3.0 | 0.0 | 0.00 | 0.00 | 0.00 | 61 | 1016.2 |
| 20260508154358 | 55 | 92 | 4.0 | 0.0 | 0.00 | 0.00 | 0.00 | 64 | 1016.3 |
| 20260508153328 | 53 | 86 | 4.0 | 0.0 | 0.00 | 0.00 | 0.00 | 67 | 1016.7 |
| 20260508152331 | 52 | 92 | 4.0 | 0.0 | 0.00 | 0.00 | 0.00 | 69 | 1017.1 |
| 20260508151335 | 51 | 111 | 4.0 | 0.0 | 0.00 | 0.00 | 0.00 | 72 | 1017.0 |
| 20260508150339 | 50 | 105 | 4.0 | 0.0 | 0.00 | 0.00 | 0.00 | 74 | 1015.4 |
| 20260508145326 | 49 | 107 | 5.0 | 0.0 | 0.00 | 0.00 | 0.00 | 76 | 1017.1 |
| 20260508144330 | 48 | 82 | 6.0 | 0.0 | 0.00 | 0.00 | 0.00 | 78 | 1016.6 |
| 20260508143335 | 47 | 90 | 6.0 | 0.0 | 0.00 | 0.00 | 0.00 | 80 | 1016.7 |
| 20260508142322 | 46 | 107 | 7.0 | 0.0 | 0.00 | 0.00 | 0.00 | 82 | 1017.1 |
| 20260508141332 | 45 | 85 | 5.0 | 0.0 | 0.00 | 0.00 | 0.00 | 83 | 1017.1 |
| 20260508140337 | 44 | 107 | 5.0 | 0.0 | 0.00 | 0.00 | 0.00 | 84 | 1016.7 |
| 20260508135341 | 43 | 130 | 5.0 | 0.0 | 0.00 | 0.00 | 0.00 | 84 | 1017.3 |
| 20260508134326 | 42 | 77 | 5.0 | 0.0 | 0.00 | 0.00 | 0.00 | 84 | 1017.2 |
| 20260508133335 | 41 | 90 | 5.0 | 0.0 | 0.00 | 0.00 | 0.00 | 84 | 1016.6 |
| 20260508132341 | 41 | 73 | 4.0 | 0.0 | 0.00 | 0.00 | 0.00 | 85 | 1016.6 |
| 20260508131326 | 41 | 98 | 3.0 | 0.0 | 0.00 | 0.00 | 0.00 | 85 | 1016.6 |
| 20260508130329 | 39 | 134 | 4.0 | 0.0 | 0.00 | 0.00 | 0.00 | 85 | 1017.0 |
| 20260508125336 | 38 | 111 | 3.0 | 0.0 | 0.00 | 0.00 | 0.00 | 85 | 1016.8 |
| 20260508124400 | 38 | 100 | 2.0 | 0.0 | 0.00 | 0.00 | 0.00 | 85 | 1016.9 |
| 20260508123344 | 37 | 90 | 2.0 | 0.0 | 0.00 | 0.00 | 0.00 | 84 | 1017.2 |
| 20260508122328 | 36 | 90 | 1.0 | 0.0 | 0.00 | 0.00 | 0.00 | 84 | 1017.2 |
| 20260508121336 | 36 | 136 | 0.0 | 0.0 | 0.00 | 0.00 | 0.00 | 84 | 1017.2 |
| 20260508120339 | 35 | 137 | 2.0 | 0.0 | 0.00 | 0.00 | 0.00 | 84 | 1015.7 |
| 20260508115333 | 37 | 127 | 2.0 | 0.0 | 0.00 | 0.00 | 0.00 | 84 | 1016.9 |
| 20260508114336 | 38 | 132 | 4.0 | 0.0 | 0.00 | 0.00 | 0.00 | 83 | 1016.8 |
| 20260508113343 | 37 | 194 | 4.0 | 0.0 | 0.00 | 0.00 | 0.00 | 83 | 1017.1 |
| 20260508112332 | 39 | 119 | 2.0 | 0.0 | 0.00 | 0.00 | 0.00 | 83 | 1016.5 |
| 20260508111337 | 39 | 117 | 3.0 | 0.0 | 0.00 | 0.00 | 0.00 | 83 | 1016.5 |
| 20260508110341 | 38 | 119 | 1.0 | 0.0 | 0.00 | 0.00 | 0.00 | 83 | 1016.7 |
| 20260508105345 | 39 | 81 | 3.0 | 0.0 | 0.00 | 0.00 | 0.00 | 83 | 1016.0 |
| 20260508104353 | 39 | 69 | 2.0 | 0.0 | 0.00 | 0.00 | 0.00 | 82 | 1016.0 |
| 20260508103337 | 40 | 75 | 3.0 | 0.0 | 0.00 | 0.00 | 0.00 | 82 | 1016.0 |
| 20260508102341 | 41 | 113 | 2.0 | 0.0 | 0.00 | 0.00 | 0.00 | 82 | 1016.4 |
| 20260508101326 | 41 | 168 | 1.0 | 0.0 | 0.00 | 0.00 | 0.00 | 82 | 1016.5 |
| 20260508100334 | 40 | 170 | 3.0 | 0.0 | 0.00 | 0.00 | 0.00 | 82 | 1015.9 |
| 20260508095344 | 39 | 171 | 3.0 | 0.0 | 0.00 | 0.00 | 0.00 | 81 | 1015.9 |
| 20260508094328 | 40 | 190 | 2.0 | 0.0 | 0.00 | 0.00 | 0.00 | 81 | 1015.8 |
| 20260508093331 | 40 | 76 | 1.0 | 0.0 | 0.00 | 0.00 | 0.00 | 81 | 1015.9 |
| 20260508092340 | 39 | 45 | 2.0 | 0.0 | 0.00 | 0.00 | 0.00 | 80 | 1015.9 |
| 20260508091345 | 40 | 44 | 3.0 | 0.0 | 0.00 | 0.00 | 0.00 | 80 | 1016.0 |
| 20260508090329 | 41 | 67 | 1.0 | 0.0 | 0.00 | 0.00 | 0.00 | 80 | 1016.5 |
| 20260508085333 | 40 | 167 | 2.0 | 0.0 | 0.00 | 0.00 | 0.00 | 79 | 1015.7 |
| 20260508084341 | 41 | 102 | 1.0 | 0.0 | 0.00 | 0.00 | 0.00 | 78 | 1015.8 |
| 20260508083346 | 42 | 162 | 2.0 | 0.0 | 0.00 | 0.00 | 0.00 | 78 | 1016.4 |
| 20260508082328 | 42 | 176 | 5.0 | 0.0 | 0.00 | 0.00 | 0.00 | 77 | 1016.3 |
| 20260508081333 | 44 | 198 | 3.0 | 0.0 | 0.00 | 0.00 | 0.00 | 76 | 1015.9 |
| 20260508080336 | 44 | 111 | 3.0 | 0.0 | 0.00 | 0.00 | 0.00 | 77 | 1015.9 |
| 20260508075343 | 44 | 113 | 4.0 | 0.0 | 0.00 | 0.00 | 0.00 | 77 | 1016.2 |
| 20260508074347 | 44 | 102 | 3.0 | 0.0 | 0.00 | 0.00 | 0.00 | 76 | 1016.2 |
| 20260508073329 | 43 | 94 | 3.0 | 0.0 | 0.00 | 0.00 | 0.00 | 75 | 1016.2 |
| 20260508072333 | 43 | 105 | 3.0 | 0.0 | 0.00 | 0.00 | 0.00 | 75 | 1016.1 |
| 20260508071341 | 43 | 106 | 2.0 | 0.0 | 0.00 | 0.00 | 0.00 | 74 | 1016.0 |
| 20260508070328 | 44 | 103 | 2.0 | 0.0 | 0.00 | 0.00 | 0.00 | 75 | 1016.0 |
| 20260508065352 | 44 | 176 | 6.0 | 0.0 | 0.00 | 0.00 | 0.00 | 75 | 1016.0 |
| 20260508064335 | 43 | 186 | 6.0 | 0.0 | 0.00 | 0.00 | 0.00 | 74 | 1015.6 |
| 20260508063340 | 43 | 195 | 3.0 | 0.0 | 0.00 | 0.00 | 0.00 | 72 | 1015.5 |
| 20260508062328 | 44 | 160 | 3.0 | 0.0 | 0.00 | 0.00 | 0.00 | 72 | 1015.9 |
| 20260508061332 | 44 | 152 | 1.0 | 0.0 | 0.00 | 0.00 | 0.00 | 70 | 1016.0 |
| 20260508060335 | 45 | 130 | 1.0 | 0.0 | 0.00 | 0.00 | 0.00 | 69 | 1016.0 |
| 20260508055340 | 46 | 116 | 1.0 | 0.0 | 0.00 | 0.00 | 0.00 | 68 | 1015.6 |
| 20260508054328 | 46 | 136 | 2.0 | 0.0 | 0.00 | 0.00 | 0.00 | 67 | 1015.6 |
| 20260508053332 | 47 | 83 | 1.0 | 0.0 | 0.00 | 0.00 | 0.00 | 67 | 1015.6 |
| 20260508052339 | 47 | 200 | 0.0 | 0.0 | 0.00 | 0.00 | 0.00 | 67 | 1015.5 |
| 20260508051327 | 48 | 200 | 0.0 | 0.0 | 0.00 | 0.00 | 0.00 | 66 | 1015.9 |
| 20260508050331 | 48 | 200 | 0.0 | 0.0 | 0.00 | 0.00 | 0.00 | 67 | 1016.0 |
| 20260508045355 | 47 | 200 | 2.0 | 0.0 | 0.00 | 0.00 | 0.00 | 67 | 1015.5 |